| time (UTC) | temp C | wind direction | speed KPH | gust KPH | rain 1hr cm | rain 24hr cm | rain mn cm | humidity % | barometer mb |
| 20260507013102 | 15 | 155 | 0.0 | 3.2 | 0.00 | 0.00 | 0.00 | 86 | 1009.4 |
| 20260507011605 | 15 | 155 | 3.2 | 4.8 | 0.00 | 0.00 | 0.00 | 86 | 1009.4 |
| 20260507010037 | 15 | 103 | 1.6 | 4.8 | 0.00 | 0.00 | 0.00 | 86 | 1009.3 |
| 20260507004528 | 15 | 95 | 0.0 | 0.0 | 0.00 | 0.00 | 0.00 | 86 | 1009.3 |
| 20260507003026 | 15 | 95 | 0.0 | 0.0 | 0.00 | 0.00 | 0.00 | 86 | 1009.4 |
| 20260507001531 | 16 | 95 | 0.0 | 0.0 | 0.00 | 0.00 | 0.00 | 87 | 1009.5 |
| 20260507000029 | 16 | 95 | 0.0 | 3.2 | 0.00 | 0.00 | 0.00 | 86 | 1009.6 |
| 20260506234522 | 16 | 95 | 0.0 | 3.2 | 0.00 | 0.00 | 0.00 | 86 | 1009.8 |
| 20260506233020 | 16 | 95 | 0.0 | 3.2 | 0.00 | 0.00 | 0.00 | 86 | 1010.0 |
| 20260506231521 | 16 | 95 | 1.6 | 3.2 | 0.00 | 0.00 | 0.00 | 87 | 1010.1 |
| 20260506230019 | 16 | 93 | 1.6 | 4.8 | 0.00 | 0.00 | 0.00 | 86 | 1010.0 |
| 20260506224519 | 16 | 91 | 0.0 | 1.6 | 0.00 | 0.00 | 0.00 | 86 | 1010.1 |
| 20260506223048 | 16 | 75 | 0.0 | 1.6 | 0.00 | 0.00 | 0.00 | 86 | 1009.9 |
| 20260506221556 | 16 | 75 | 0.0 | 1.6 | 0.00 | 0.00 | 0.00 | 87 | 1009.9 |
| 20260506220047 | 16 | 75 | 3.2 | 4.8 | 0.00 | 0.00 | 0.00 | 87 | 1009.9 |
| 20260506214544 | 16 | 76 | 3.2 | 6.4 | 0.00 | 0.00 | 0.00 | 87 | 1010.1 |
| 20260506213052 | 16 | 87 | 3.2 | 6.4 | 0.00 | 0.00 | 0.00 | 86 | 1010.2 |
| 20260506211551 | 16 | 101 | 0.0 | 0.0 | 0.00 | 0.00 | 0.00 | 86 | 1010.4 |
| 20260506210046 | 16 | 101 | 0.0 | 1.6 | 0.00 | 0.00 | 0.00 | 86 | 1010.4 |
| 20260506204539 | 16 | 101 | 1.6 | 3.2 | 0.00 | 0.00 | 0.00 | 85 | 1010.2 |
| 20260506203038 | 17 | 101 | 3.2 | 6.4 | 0.00 | 0.00 | 0.00 | 85 | 1010.2 |
| 20260506201540 | 17 | 95 | 3.2 | 8.0 | 0.00 | 0.00 | 0.00 | 85 | 1009.9 |
| 20260506200037 | 17 | 86 | 3.2 | 11.3 | 0.00 | 0.00 | 0.00 | 83 | 1009.8 |
| 20260506194534 | 17 | 91 | 4.8 | 9.7 | 0.00 | 0.00 | 0.00 | 82 | 1009.7 |
| 20260506193044 | 17 | 107 | 6.4 | 12.9 | 0.00 | 0.00 | 0.00 | 81 | 1009.4 |
| 20260506191532 | 17 | 115 | 8.0 | 16.1 | 0.00 | 0.00 | 0.00 | 81 | 1009.4 |
| 20260506190032 | 18 | 103 | 4.8 | 14.5 | 0.00 | 0.00 | 0.00 | 80 | 1009.2 |
| 20260506184604 | 18 | 139 | 14.5 | 20.9 | 0.00 | 0.00 | 0.00 | 78 | 1009.0 |
| 20260506183104 | 18 | 106 | 12.9 | 22.5 | 0.00 | 0.00 | 0.00 | 77 | 1008.8 |
| 20260506181657 | 18 | 103 | 14.5 | 24.1 | 0.00 | 0.00 | 0.00 | 76 | 1008.8 |
| 20260506180055 | 18 | 114 | 14.5 | 25.7 | 0.00 | 0.00 | 0.00 | 76 | 1008.8 |
| 20260506174554 | 18 | 92 | 9.7 | 22.5 | 0.00 | 0.00 | 0.00 | 75 | 1008.7 |
| 20260506173120 | 18 | 112 | 12.9 | 25.7 | 0.00 | 0.00 | 0.00 | 74 | 1008.6 |
| 20260506171554 | 19 | 125 | 11.3 | 22.5 | 0.00 | 0.00 | 0.00 | 74 | 1008.5 |
| 20260506170104 | 19 | 109 | 19.3 | 30.6 | 0.00 | 0.00 | 0.00 | 72 | 1008.7 |
| 20260506164549 | 19 | 126 | 14.5 | 29.0 | 0.00 | 0.00 | 0.00 | 72 | 1008.4 |
| 20260506163055 | 19 | 86 | 17.7 | 29.0 | 0.00 | 0.00 | 0.00 | 72 | 1008.3 |
| 20260506161547 | 19 | 128 | 17.7 | 27.4 | 0.00 | 0.00 | 0.00 | 70 | 1008.3 |
| 20260506160046 | 20 | 113 | 19.3 | 29.0 | 0.00 | 0.00 | 0.00 | 69 | 1008.5 |
| 20260506154603 | 20 | 107 | 19.3 | 30.6 | 0.00 | 0.00 | 0.00 | 70 | 1008.6 |
| 20260506153042 | 20 | 111 | 19.3 | 29.0 | 0.00 | 0.00 | 0.00 | 70 | 1008.4 |
| 20260506151538 | 20 | 114 | 16.1 | 30.6 | 0.00 | 0.00 | 0.00 | 70 | 1008.5 |
| 20260506150037 | 20 | 141 | 16.1 | 30.6 | 0.00 | 0.00 | 0.00 | 71 | 1008.6 |
| 20260506144542 | 20 | 130 | 20.9 | 32.2 | 0.00 | 0.00 | 0.00 | 72 | 1008.7 |
| 20260506143035 | 20 | 111 | 17.7 | 33.8 | 0.00 | 0.00 | 0.00 | 72 | 1008.9 |
| 20260506141531 | 20 | 131 | 22.5 | 32.2 | 0.00 | 0.00 | 0.00 | 71 | 1009.0 |
| 20260506140034 | 20 | 144 | 17.7 | 33.8 | 0.00 | 0.00 | 0.00 | 71 | 1009.1 |
| 20260506134529 | 21 | 91 | 16.1 | 33.8 | 0.00 | 0.00 | 0.00 | 71 | 1008.9 |
| 20260506133035 | 20 | 115 | 24.1 | 38.6 | 0.00 | 0.00 | 0.00 | 70 | 1009.0 |
| 20260506131557 | 21 | 95 | 20.9 | 30.6 | 0.00 | 0.00 | 0.00 | 70 | 1008.9 |
| 20260506130120 | 21 | 111 | 12.9 | 33.8 | 0.00 | 0.00 | 0.00 | 71 | 1008.9 |
| 20260506124552 | 21 | 123 | 17.7 | 29.0 | 0.00 | 0.00 | 0.00 | 67 | 1009.1 |
| 20260506123051 | 21 | 126 | 22.5 | 35.4 | 0.00 | 0.00 | 0.00 | 68 | 1009.0 |
| 20260506121550 | 22 | 144 | 17.7 | 27.4 | 0.00 | 0.00 | 0.00 | 66 | 1009.0 |
| 20260506120048 | 21 | 74 | 16.1 | 32.2 | 0.00 | 0.00 | 0.00 | 67 | 1009.2 |
| 20260506114548 | 21 | 96 | 20.9 | 32.2 | 0.00 | 0.00 | 0.00 | 66 | 1009.3 |
| 20260506113043 | 21 | 114 | 17.7 | 32.2 | 0.00 | 0.00 | 0.00 | 65 | 1009.6 |
| 20260506111642 | 21 | 98 | 20.9 | 32.2 | 0.00 | 0.00 | 0.00 | 66 | 1009.6 |
| 20260506110044 | 21 | 86 | 17.7 | 32.2 | 0.00 | 0.00 | 0.00 | 66 | 1009.5 |
| 20260506104557 | 21 | 117 | 14.5 | 29.0 | 0.00 | 0.00 | 0.00 | 66 | 1009.7 |
| 20260506103039 | 21 | 137 | 14.5 | 25.7 | 0.00 | 0.00 | 0.00 | 66 | 1009.8 |
| 20260506101532 | 21 | 141 | 19.3 | 29.0 | 0.00 | 0.00 | 0.00 | 63 | 1009.9 |
| 20260506100033 | 21 | 109 | 16.1 | 24.1 | 0.00 | 0.00 | 0.00 | 65 | 1010.0 |
| 20260506094526 | 20 | 111 | 14.5 | 25.7 | 0.00 | 0.00 | 0.00 | 65 | 1010.0 |
| 20260506093018 | 20 | 90 | 17.7 | 30.6 | 0.00 | 0.00 | 0.00 | 65 | 1009.9 |
| 20260506091514 | 20 | 65 | 8.0 | 20.9 | 0.00 | 0.00 | 0.00 | 68 | 1009.7 |
| 20260506090012 | 20 | 34 | 9.7 | 24.1 | 0.00 | 0.00 | 0.00 | 69 | 1009.6 |
| 20260506084507 | 20 | 44 | 9.7 | 16.1 | 0.00 | 0.00 | 0.00 | 72 | 1009.6 |
| 20260506083002 | 18 | 82 | 11.3 | 17.7 | 0.00 | 0.00 | 0.00 | 75 | 1009.5 |
| 20260506081500 | 18 | 111 | 8.0 | 12.9 | 0.00 | 0.00 | 0.00 | 74 | 1009.5 |
| 20260506080106 | 18 | 121 | 3.2 | 8.0 | 0.00 | 0.00 | 0.00 | 75 | 1009.4 |
| 20260506073019 | 17 | 327 | 3.2 | 9.7 | 0.00 | 0.00 | 0.00 | 75 | 1009.4 |
| 20260506071514 | 17 | 338 | 4.8 | 8.0 | 0.00 | 0.00 | 0.00 | 73 | 1009.4 |
| 20260506061556 | 13 | 171 | 4.8 | 6.4 | 0.00 | 0.00 | 0.00 | 80 | 1009.4 |
| 20260506044540 | 12 | 221 | 3.2 | 6.4 | 0.00 | 0.00 | 0.00 | 80 | 1008.3 |
| 20260506043047 | 12 | 57 | 3.2 | 4.8 | 0.00 | 0.00 | 0.00 | 80 | 1008.4 |
| 20260506041537 | 12 | 81 | 8.0 | 11.3 | 0.00 | 0.00 | 0.00 | 79 | 1008.3 |
| 20260506040042 | 13 | 117 | 3.2 | 6.4 | 0.00 | 0.00 | 0.00 | 74 | 1008.2 |
| 20260506034526 | 15 | 117 | 1.6 | 4.8 | 0.00 | 0.00 | 0.00 | 70 | 1008.2 |
| 20260506033028 | 16 | 294 | 0.0 | 8.0 | 0.00 | 0.00 | 0.00 | 67 | 1008.2 |
| 20260506031557 | 16 | 284 | 8.0 | 16.1 | 0.00 | 0.00 | 0.00 | 68 | 1008.1 |
| 20260506030052 | 16 | 305 | 8.0 | 12.9 | 0.00 | 0.00 | 0.00 | 71 | 1008.1 |
| 20260506024546 | 15 | 271 | 8.0 | 12.9 | 0.00 | 0.00 | 0.00 | 75 | 1008.0 |
| 20260506023042 | 15 | 250 | 1.6 | 4.8 | 0.00 | 0.00 | 0.00 | 77 | 1008.2 |
| 20260506021552 | 15 | 250 | 1.6 | 4.8 | 0.00 | 0.00 | 0.00 | 77 | 1008.2 |
| 20260506020038 | 15 | 191 | 1.6 | 4.8 | 0.00 | 0.00 | 0.00 | 80 | 1008.4 |
| 20260506014532 | 14 | 190 | 0.0 | 4.8 | 0.00 | 0.00 | 0.00 | 84 | 1008.5 |